Powrót do katalogu

ARIANE 5 R/B

AktywnyGTO
NORAD 41593·ROCKET BODY·🇫🇷 France

Wystrzelony Jun 18, 2016 z Guiana Space Centre

Loading…

TLE

Starzejące sięSource: Space-Track

Epoka: Sep 14, 2026, 10:50 UTC

1 41593U 16039C   26257.45198864  .00002879  00000-0  11608-2 0  9992
2 41593   6.0213 255.4456 7133192 107.1563 336.5182  2.45785355 87867

Śledź ARIANE 5 R/B w czasie rzeczywistym z AllMySat

Download on the App Store